WILDTRACKCUBE-SIMBA

Last updated on Sat Aug 30 2025 00:03:48 GMT+0000 (Coordinated Universal Time)

1 47941U 21022K 25241.27359453 .00050928 00000+0 90264-3 0 9991 2 47941 97.4109 147.8415 0009820 38.5898 321.6054 15.50051908245676
UTC large
Height (km)
Speed (km/s)
/
Latitude / Longitude
Inclination (degrees)
Orbital Period (minutes)
Azimuth
Elevation
Range (km)
Doppler Factor

Next 0 passes for location: London (51.5072 / 0.1276)

Sorry there are no passes over London.